TimeMDT,TemperatureF,Dew PointF,Humidity,Sea Level PressureIn,VisibilityMPH,Wind Direction,Wind SpeedMPH,Gust SpeedMPH,PrecipitationIn,Events,Conditions,WindDirDegrees,DateUTC
12:16 AM,62.6,57.2,82,30.24,10.0,NNW,12.7,-,N/A,,Clear,330,2013-07-14 06:16:00
12:36 AM,62.6,57.2,82,30.23,10.0,NNW,13.8,-,N/A,,Clear,340,2013-07-14 06:36:00
12:56 AM,64.4,59.0,83,30.21,10.0,NNW,10.4,-,N/A,,Clear,340,2013-07-14 06:56:00
1:16 AM,64.4,57.2,77,30.22,10.0,NNW,5.8,-,N/A,,Clear,340,2013-07-14 07:16:00
1:36 AM,62.6,59.0,88,30.22,10.0,Calm,Calm,-,N/A,,Clear,0,2013-07-14 07:36:00
1:56 AM,62.6,59.0,88,30.21,10.0,Calm,Calm,-,N/A,,Clear,0,2013-07-14 07:56:00
2:15 AM,60.8,57.2,88,30.21,10.0,SW,4.6,-,N/A,,Clear,230,2013-07-14 08:15:00
2:36 AM,60.8,55.4,82,30.19,10.0,WNW,3.5,-,N/A,,Clear,290,2013-07-14 08:36:00
2:55 AM,59.0,55.4,88,30.19,10.0,West,4.6,-,N/A,,Clear,280,2013-07-14 08:55:00
3:16 AM,60.8,53.6,77,30.19,10.0,Calm,Calm,-,N/A,,Clear,0,2013-07-14 09:16:00
3:36 AM,60.8,55.4,82,30.19,10.0,Calm,Calm,-,N/A,,Clear,0,2013-07-14 09:36:00
3:55 AM,60.8,55.4,82,30.19,10.0,SSE,3.5,-,N/A,,Clear,160,2013-07-14 09:55:00
4:16 AM,59.0,55.4,88,30.18,10.0,SW,3.5,-,N/A,,Clear,220,2013-07-14 10:16:00
4:36 AM,57.2,53.6,88,30.18,10.0,WSW,6.9,-,N/A,,Clear,250,2013-07-14 10:36:00
4:56 AM,59.0,53.6,82,30.17,10.0,West,10.4,-,N/A,,Clear,260,2013-07-14 10:56:00
5:16 AM,59.0,51.8,77,30.16,10.0,West,10.4,-,N/A,,Clear,270,2013-07-14 11:16:00
5:36 AM,60.8,53.6,77,30.18,10.0,NE,9.2,-,N/A,,Clear,50,2013-07-14 11:36:00
5:48 AM,60.8,55.4,82,30.18,40.0,ENE,9.2,-,N/A,,Scattered Clouds,60,2013-07-14 11:48:00
5:56 AM,60.8,55.4,82,30.19,10.0,NE,5.8,10.4,N/A,,Clear,50,2013-07-14 11:56:00
6:45 AM,62.6,57.2,82,30.22,40.0,Variable,3.5,-,N/A,,Scattered Clouds,0,2013-07-14 12:45:00
7:47 AM,64.4,55.4,73,30.23,40.0,NW,16.1,23.0,N/A,,Scattered Clouds,310,2013-07-14 13:47:00
8:47 AM,69.8,55.4,60,30.25,40.0,North,11.5,-,N/A,,Scattered Clouds,350,2013-07-14 14:47:00
9:45 AM,73.4,55.4,53,30.28,30.0,North,9.2,-,N/A,,Scattered Clouds,10,2013-07-14 15:45:00
11:50 AM,71.6,57.2,60,30.32,30.0,NNE,10.4,15.0,N/A,,Mostly Cloudy,30,2013-07-14 17:50:00
12:47 PM,75.2,55.4,50,30.31,30.0,NNE,11.5,-,N/A,,Mostly Cloudy,20,2013-07-14 18:47:00
1:47 PM,77.0,55.4,47,30.29,30.0,NNW,9.2,-,N/A,,Mostly Cloudy,330,2013-07-14 19:47:00
2:45 PM,80.6,53.6,39,30.28,30.0,NW,8.1,-,N/A,,Mostly Cloudy,320,2013-07-14 20:45:00
3:47 PM,80.6,51.8,37,30.26,30.0,North,4.6,-,N/A,,Mostly Cloudy,350,2013-07-14 21:47:00
4:52 PM,78.8,51.8,39,30.24,30.0,WNW,11.5,-,N/A,,Mostly Cloudy,290,2013-07-14 22:52:00
5:45 PM,78.8,50.0,36,30.26,30.0,WNW,6.9,-,N/A,,Mostly Cloudy,300,2013-07-14 23:45:00
6:46 PM,77.0,51.8,41,30.24,30.0,NW,6.9,-,N/A,,Mostly Cloudy,320,2013-07-15 00:46:00
7:55 PM,75.2,55.4,50,30.25,20.0,NNW,10.4,-,N/A,,Mostly Cloudy,330,2013-07-15 01:55:00
8:48 PM,71.6,59.0,64,30.26,20.0,East,8.1,-,N/A,,Overcast,90,2013-07-15 02:48:00
11:16 PM,68.0,60.8,78,30.28,10.0,Calm,Calm,-,N/A,,Overcast,0,2013-07-15 05:16:00
11:36 PM,68.0,60.8,78,30.28,10.0,Calm,Calm,-,N/A,,Overcast,0,2013-07-15 05:36:00
11:55 PM,68.0,60.8,78,30.29,10.0,ENE,3.5,-,N/A,,Overcast,70,2013-07-15 05:55:00